Theta_e
328 328 327 327 326 326 325 325 325 324 324 324 323 324 323 322 321 321 321 321 320 320 320 321 323 323 314 308 311 334 345 340 327 323 324 326 323 327 323 328 329 325 327 329 331 331 330
328 328 327 327 326 326 325 325 324 323 323 323 323 321 323 321 321 321 321 321 320 319 320 321 324 323 310 303 321 330 321 319 321 327 328 328 323 322 327 326 325 329 326 327 331 330 328
328 327 327 327 326 326 326 326 325 323 323 322 321 321 320 322 322 321 321 320 319 319 320 323 324 320 310 310 320 322 317 311 317 323 321 324 323 311 326 325 332 329 324 324 326 329 328
327 327 326 326 326 326 326 326 325 323 322 321 321 320 320 319 320 320 320 319 318 319 321 325 322 315 303 320 317 322 318 316 319 320 321 322 313 309 310 325 329 324 319 309 325 328 330
327 327 326 326 325 325 325 325 324 324 322 322 321 320 319 318 318 318 318 318 319 321 322 327 313 308 306 321 310 315 321 317 317 318 318 320 312 307 307 303 306 313 307 313 319 328 326
326 326 325 325 325 324 324 324 323 323 323 322 321 319 319 318 317 316 316 317 319 319 321 323 320 306 310 308 310 313 317 319 314 311 309 308 302 300 300 299 297 305 310 311 315 322 325
325 325 325 324 324 323 323 323 323 322 322 321 320 319 318 318 317 316 312 308 306 305 307 308 307 309 313 316 311 311 316 311 309 305 298 302 297 294 299 301 305 307 315 313 318 324 322
324 324 324 324 324 323 322 322 322 322 322 321 320 319 318 317 317 315 308 305 310 305 300 309 312 312 314 311 307 311 313 305 305 299 300 297 294 300 303 303 302 303 308 315 320 324 321
323 323 323 323 323 322 322 321 321 321 321 320 320 319 318 317 316 311 307 310 315 308 298 304 308 309 306 309 307 308 309 306 302 299 298 295 299 305 303 301 302 304 310 311 314 321 322
322 322 322 322 322 322 321 321 321 320 320 320 319 318 317 315 309 306 307 313 311 307 293 300 302 304 305 305 302 312 311 307 301 299 299 297 303 304 301 300 300 296 312 317 316 315 307
322 322 322 321 322 321 321 320 320 320 320 319 319 318 316 315 306 305 310 311 310 305 288 304 300 306 304 303 303 305 312 305 300 300 297 297 299 299 300 301 303 301 317 315 316 311 309
322 322 322 321 321 321 320 319 319 319 319 319 318 317 316 310 306 310 313 312 305 293 289 298 302 301 299 299 303 305 305 304 304 300 298 298 303 302 302 306 307 310 307 301 305 305 299
321 321 321 321 320 320 319 319 319 318 318 318 316 315 314 316 306 310 309 304 293 288 301 295 296 298 296 296 298 301 299 295 293 291 289 297 299 301 306 302 304 302 295 289 291 294 295
321 321 320 320 319 319 319 318 318 318 317 317 314 313 312 314 311 310 306 298 288 299 300 301 298 296 295 297 297 299 296 294 297 294 290 289 290 299 304 301 299 297 296 290 287 289 293
321 320 320 320 319 318 318 318 318 317 317 315 312 312 309 312 314 309 301 291 293 299 305 301 297 293 292 297 297 296 294 294 297 296 291 289 293 303 304 304 302 296 293 298 291 289 289
320 320 320 319 319 318 319 318 318 317 316 314 308 308 308 316 313 305 297 293 297 303 305 302 293 295 291 294 293 292 293 297 298 300 297 295 290 295 303 303 300 298 299 293 289 286 284
319 319 319 319 318 319 318 318 317 316 315 313 308 307 312 314 310 300 292 293 300 305 305 299 296 295 294 294 293 291 293 298 300 300 298 295 290 294 297 293 294 294 291 291 291 289 286
318 318 319 318 318 318 318 318 316 314 312 312 307 301 313 310 298 295 293 299 303 303 306 302 300 297 296 296 294 292 294 297 302 300 297 299 291 288 292 299 299 296 293 291 287 287 287
317 317 318 318 318 318 318 317 316 314 313 309 304 304 315 309 295 296 299 303 305 304 304 300 298 300 298 295 292 295 298 301 302 300 298 297 290 287 291 295 298 294 294 291 290 289 287
316 316 316 318 318 318 318 318 317 315 315 309 306 300 304 306 302 300 298 300 301 308 306 305 300 300 297 294 296 296 296 302 303 302 316 304 292 289 286 289 296 295 298 296 292 286 287
314 314 315 317 318 318 318 318 317 316 315 311 307 303 305 299 302 302 301 302 302 303 306 305 298 299 296 292 294 295 296 297 302 313 300 295 289 291 293 297 297 298 299 298 292 292 295
312 313 313 314 316 318 318 318 318 316 315 309 305 304 306 303 304 301 300 299 303 304 304 301 299 302 298 294 297 297 296 294 294 297 296 295 290 292 293 299 298 297 301 305 298 310 312
311 311 312 312 313 316 318 318 317 316 314 309 313 312 305 301 301 300 300 303 305 304 306 307 304 300 300 300 302 300 300 298 298 297 296 295 292 289 286 297 296 292 299 306 311 313 311
311 311 311 311 312 313 316 318 317 315 313 315 311 312 306 300 300 301 305 306 304 303 300 305 305 299 303 305 303 302 300 300 302 298 299 294 294 291 288 292 284 294 313 315 311 313 316
310 310 310 311 311 312 313 317 318 316 314 314 316 311 306 301 301 303 304 303 303 302 301 304 305 302 300 299 296 294 294 294 296 298 297 299 294 291 288 288 292 299 308 307 308 307 314
310 310 310 310 311 311 312 313 317 316 314 313 314 315 305 301 302 306 302 301 298 297 300 302 304 304 303 297 295 289 288 292 291 293 296 294 294 291 289 287 285 294 308 316 313 299 314
312 312 313 313 312 311 311 312 313 316 314 313 312 315 307 301 305 306 304 299 302 300 297 301 302 301 303 296 293 290 290 296 292 293 291 291 290 287 286 286 292 304 312 311 296 297 313
312 312 313 313 313 313 313 313 314 316 317 313 311 315 308 302 305 309 308 303 302 301 297 301 302 300 299 293 295 293 292 293 292 295 292 291 288 286 285 284 285 310 310 300 306 313 313
313 313 313 313 313 313 314 314 314 315 316 316 308 312 313 306 305 310 309 310 309 308 303 301 302 300 301 296 299 297 295 296 294 290 296 291 291 290 290 289 304 308 308 312 314 312 311
Wind_Speed
13 13 14 14 14 14 14 16 15 14 15 15 17 16 17 19 19 19 20 20 18 16 14 12 10 8 3 2 7 6 11 9 6 4 4 2 2 5 3 5 9 7 6 10 7 11 5
14 14 12 13 13 13 14 15 16 18 18 17 17 19 16 19 19 18 19 18 17 15 12 10 8 3 1 2 2 10 10 6 6 5 4 5 4 2 2 4 4 8 7 12 8 14 10
14 14 15 14 12 13 13 15 15 17 18 20 19 18 19 17 18 19 19 19 17 14 10 8 3 3 1 9 2 8 11 8 5 6 2 4 5 2 7 2 10 2 4 7 1 16 6
13 13 14 14 15 14 14 15 14 17 16 20 21 20 20 21 20 20 20 20 18 13 8 4 1 1 7 6 5 5 5 3 4 5 4 9 5 4 5 4 2 8 4 1 8 6 13
15 15 15 15 16 16 16 15 15 14 16 17 21 21 22 21 21 22 22 22 17 9 6 3 1 1 8 11 4 6 7 4 4 5 7 8 5 2 3 3 2 3 5 8 1 3 13
19 20 19 18 15 15 17 17 17 15 16 17 18 23 24 23 22 23 25 20 3 2 4 4 4 4 5 4 3 3 6 5 4 2 6 2 5 3 3 4 5 6 3 1 9 10 16
17 17 16 17 16 14 14 17 18 18 16 18 19 21 24 24 23 22 14 3 5 4 1 8 5 4 6 3 1 2 5 3 2 5 3 2 4 6 11 7 5 4 3 5 3 11 10
17 17 17 16 15 14 15 16 17 18 17 19 24 24 25 25 25 22 1 1 7 2 7 9 10 7 8 7 3 6 5 3 4 5 1 6 6 12 8 6 7 5 7 7 5 3 5
17 17 17 17 16 15 15 16 17 18 18 20 20 24 24 28 28 1 3 7 7 6 2 8 6 5 5 5 6 8 8 3 2 4 4 7 12 6 6 9 8 4 7 6 8 4 5
20 17 17 17 17 16 15 16 18 18 18 19 20 21 22 28 3 6 5 6 8 5 6 7 2 6 3 3 4 7 8 5 2 8 5 6 11 8 7 7 7 4 8 6 10 9 6
16 16 17 18 17 16 16 16 16 17 18 21 21 23 18 9 5 3 6 9 8 7 3 3 4 2 6 8 2 3 6 3 5 6 5 10 4 4 7 9 6 10 14 14 10 9 6
16 16 16 15 15 15 16 16 16 16 19 22 24 19 15 2 1 10 9 9 6 7 3 3 5 5 6 2 5 2 4 1 2 3 2 10 5 4 8 8 5 6 4 6 4 4 1
16 15 15 14 15 15 15 16 16 18 20 22 25 24 6 4 6 2 6 6 6 4 4 5 6 5 5 5 1 5 7 4 4 2 4 9 6 5 5 5 5 8 7 4 4 3 7
15 15 16 16 16 15 15 16 17 19 22 22 26 28 5 7 6 3 5 6 2 4 6 4 5 4 7 6 5 7 6 4 5 5 1 2 8 4 2 5 7 1 8 7 6 5 7
14 15 15 15 14 14 15 16 17 19 23 22 23 3 2 6 9 3 7 4 7 5 4 8 5 5 4 5 6 6 7 8 9 8 8 3 6 4 5 4 8 4 1 8 7 3 3
14 14 14 14 14 14 15 16 17 19 24 24 4 4 5 4 8 6 6 5 5 3 6 5 1 5 8 7 6 7 8 6 6 8 7 7 3 4 7 5 2 7 5 1 4 3 5
13 13 13 14 14 14 14 15 16 19 24 22 3 5 6 7 6 6 3 7 6 8 4 5 1 2 3 4 8 8 11 4 3 3 6 3 5 10 2 5 8 3 1 4 5 6 6
16 15 13 13 13 14 14 14 15 16 22 7 3 3 4 3 3 1 3 5 4 9 15 9 3 4 5 2 4 5 11 9 5 4 6 3 6 1 5 8 6 7 7 6 7 6 2
17 15 14 13 14 13 13 13 12 13 12 3 3 5 6 7 3 4 6 6 7 10 8 7 5 6 2 2 2 3 5 2 6 5 8 5 2 4 12 8 9 6 4 6 5 4 4
17 17 16 13 12 12 12 12 11 10 10 1 3 4 6 5 1 3 5 6 5 7 7 4 8 5 2 3 5 4 2 3 2 5 6 8 3 8 7 6 4 6 10 7 8 4 5
18 18 16 14 13 12 11 11 11 10 9 2 1 5 4 3 4 5 2 4 6 7 2 7 7 5 4 3 3 6 2 4 5 5 4 7 5 4 6 5 2 5 9 8 5 6 5
18 18 18 17 15 12 11 10 9 9 6 1 2 2 6 4 4 2 2 3 4 7 6 7 3 12 3 5 4 5 7 3 6 1 4 2 3 3 2 2 4 6 10 12 6 8 9
19 19 18 17 16 15 12 10 9 8 2 1 3 4 4 5 4 3 4 4 8 9 5 5 5 4 9 4 4 4 6 5 9 9 4 5 5 4 3 2 4 5 4 5 8 5 12
21 20 18 18 17 16 14 11 9 8 7 1 3 1 1 5 2 4 6 6 8 9 5 8 1 4 3 9 3 6 7 9 9 5 4 7 6 4 3 2 4 6 8 17 17 12 12
19 21 21 19 17 16 15 13 10 9 8 3 2 1 2 4 3 6 6 4 7 8 4 5 4 3 2 5 2 5 5 6 2 5 6 6 5 3 6 3 5 3 2 4 6 3 10
20 19 18 20 19 17 15 15 12 10 9 3 2 2 2 1 5 5 4 3 4 3 7 5 3 3 9 3 2 4 4 5 2 1 4 7 7 6 2 5 7 5 5 8 7 2 2
21 20 19 18 17 16 17 16 16 12 11 5 3 5 2 3 4 2 3 3 1 1 3 5 6 7 4 5 2 2 5 3 8 8 4 3 3 6 2 3 4 1 4 2 7 6 5
24 23 22 21 20 19 17 15 16 15 12 8 2 5 4 3 4 4 6 6 2 2 2 5 4 6 4 3 1 3 5 5 3 6 9 8 7 5 3 4 5 2 3 5 6 7 10
23 23 22 21 20 21 19 18 16 14 12 13 2 4 4 3 3 2 6 7 6 5 4 3 5 2 3 3 3 1 2 3 2 8 2 4 8 7 6 7 4 3 7 7 11 12 5
Wind_Direction
346 344 343 344 349 354 350 343 345 348 343 335 339 331 335 334 334 332 326 324 324 325 325 324 323 328 333 3 253 142 134 141 134 163 213 160 103 129 206 196 136 189 246 247 255 256 230
344 342 343 342 347 350 347 350 350 349 348 343 338 337 329 333 332 325 318 318 318 321 320 318 309 318 16 311 162 136 134 141 157 181 212 186 214 132 220 242 136 183 232 281 349 356 65
339 338 340 340 343 346 339 346 349 345 342 340 341 334 329 317 321 322 318 315 315 313 311 305 313 259 49 238 224 156 149 176 209 179 168 231 254 147 140 39 264 283 80 309 303 69 44
331 337 335 333 344 337 337 334 337 344 340 341 340 333 329 324 326 323 317 313 310 300 292 288 116 258 244 255 214 173 189 198 232 240 228 274 246 113 152 185 53 321 73 55 152 233 49
335 336 334 334 342 335 334 333 328 328 339 336 337 333 330 329 328 327 317 311 304 276 234 227 75 81 275 312 211 195 170 218 209 246 238 261 70 154 31 81 41 162 245 135 115 153 76
339 336 336 338 339 336 332 330 328 325 328 334 334 334 332 329 329 328 322 307 232 310 185 201 259 335 281 232 214 215 195 213 244 116 5 86 56 50 52 99 201 207 214 164 158 161 128
338 335 334 334 331 328 330 328 326 325 325 332 334 334 331 329 328 330 340 9 17 16 133 198 197 230 270 256 64 246 217 145 201 82 166 269 84 205 223 182 230 279 197 178 97 147 126
338 336 333 327 326 325 329 331 325 325 326 331 335 336 333 326 324 323 236 57 211 194 314 239 235 248 266 220 144 267 102 145 137 191 180 13 228 234 240 234 241 267 212 113 55 191 112
337 338 336 332 332 331 325 327 327 326 325 330 330 334 332 328 319 105 189 243 262 47 48 293 213 194 230 135 187 225 127 178 110 201 191 167 240 230 227 276 284 214 192 200 159 166 32
341 338 337 334 332 330 328 327 326 323 321 326 327 331 335 329 9 321 277 270 316 150 58 282 173 261 177 137 293 211 179 141 230 202 217 215 257 231 248 249 176 236 212 167 134 76 261
330 331 332 334 330 327 327 324 320 317 318 325 327 329 332 329 296 295 269 341 323 56 49 175 215 196 164 160 233 257 173 114 233 262 57 257 278 252 235 234 178 239 164 179 170 164 142
333 333 329 325 328 328 325 321 321 319 321 326 324 323 331 64 198 244 319 321 43 50 276 230 163 154 98 234 268 120 155 352 174 242 218 236 242 199 218 247 207 144 100 47 63 153 148
334 331 327 326 331 328 324 324 322 323 323 322 318 312 296 279 229 11 318 41 49 126 329 201 182 163 157 228 188 170 173 208 176 36 325 320 283 276 241 176 351 75 65 8 5 26 217
330 330 332 333 332 328 327 326 323 325 324 323 318 313 221 210 250 345 37 52 128 246 244 236 158 128 171 184 224 201 143 197 257 114 62 211 325 161 277 167 171 168 138 150 189 184 244
329 330 333 332 328 326 326 328 326 325 325 326 316 328 224 249 208 98 71 80 210 230 335 356 56 114 254 228 178 144 195 203 212 167 180 189 277 286 224 204 115 288 61 188 111 345 49
328 328 330 329 330 329 327 330 331 329 328 334 327 340 269 203 129 72 77 231 253 269 323 338 171 161 195 227 147 155 193 221 231 188 159 225 289 244 261 127 100 142 177 103 6 176 225
328 327 326 328 328 328 327 332 336 336 330 327 18 3 261 144 78 54 163 231 285 280 312 341 239 286 159 234 197 193 199 238 144 131 122 127 103 292 64 144 181 5 22 68 125 139 160
325 330 324 323 321 322 327 333 337 342 336 35 358 356 291 52 85 177 182 215 255 291 311 290 260 199 203 257 261 245 187 186 176 157 132 193 133 320 270 290 170 159 183 140 121 268 119
322 323 320 322 323 321 325 329 336 347 13 334 340 266 293 112 172 260 275 274 257 280 278 250 240 208 205 242 311 229 130 255 163 110 159 193 32 27 341 358 7 27 314 156 125 84 182
315 316 316 311 312 315 318 323 328 338 350 52 357 335 312 36 39 125 358 286 298 289 278 313 241 110 16 281 179 198 180 172 118 115 110 87 112 145 186 195 241 308 314 260 122 102 168
313 312 311 311 305 308 311 312 315 324 342 8 167 253 234 293 333 327 273 283 318 326 318 346 311 168 147 302 299 158 220 95 36 154 75 104 139 150 202 210 299 298 314 322 172 162 133
312 311 311 310 309 302 303 301 302 309 324 118 257 8 343 284 279 315 290 266 287 320 358 319 358 329 226 151 209 216 152 170 180 214 114 31 184 137 251 282 10 309 347 28 74 116 101
309 309 308 305 303 299 294 289 287 288 330 243 293 335 107 269 318 15 243 333 336 355 309 335 304 19 352 172 151 348 186 161 171 145 132 112 120 87 250 302 30 343 83 96 63 18 139
306 303 301 300 298 295 290 279 270 261 218 274 257 355 307 272 238 231 329 338 347 324 269 301 78 109 286 325 304 49 24 80 95 51 108 123 110 113 184 46 176 235 115 107 88 45 60
301 301 299 294 289 286 286 277 261 254 227 225 287 234 240 247 246 299 304 315 323 310 277 260 276 205 278 25 349 81 9 25 7 111 87 104 117 105 130 168 287 92 118 127 135 6 6
297 291 288 293 292 284 279 279 268 241 229 207 219 236 234 211 226 245 275 266 272 290 312 316 319 292 61 44 339 135 168 191 176 57 75 84 90 111 127 149 191 204 100 113 115 110 335
289 285 280 273 268 275 278 270 264 247 214 182 221 198 153 209 256 187 199 231 275 269 249 292 338 354 72 20 61 169 155 254 180 196 158 79 46 155 177 176 267 336 299 245 142 194 116
284 280 275 270 267 264 259 256 255 253 225 180 190 192 175 215 255 212 191 206 213 191 211 288 26 349 23 42 121 273 114 241 116 176 166 172 155 194 135 138 253 272 4 162 149 98 116
288 280 274 267 263 259 254 248 247 244 237 202 199 177 161 216 282 303 264 252 232 206 165 281 168 224 234 104 276 163 1 83 67 279 146 177 172 172 161 200 239 338 129 110 117 122 126